TimeEDT,TemperatureF,Dew PointF,Humidity,Sea Level PressureIn,VisibilityMPH,Wind Direction,Wind SpeedMPH,Gust SpeedMPH,PrecipitationIn,Events,Conditions,WindDirDegrees,DateUTC
12:56 AM,41.0,30.9,67,30.11,10.0,NW,3.5,-,N/A,,Overcast,320,2012-11-03 04:56:00
1:56 AM,39.0,32.0,76,30.12,10.0,NW,4.6,-,N/A,,Mostly Cloudy,310,2012-11-03 05:56:00
2:56 AM,36.0,30.0,79,30.13,10.0,WNW,5.8,-,N/A,,Partly Cloudy,300,2012-11-03 06:56:00
3:56 AM,33.1,28.9,85,30.13,10.0,NW,5.8,-,N/A,,Clear,320,2012-11-03 07:56:00
4:56 AM,32.0,28.9,88,30.13,10.0,NNW,5.8,-,N/A,,Clear,330,2012-11-03 08:56:00
5:56 AM,30.9,28.0,89,30.16,10.0,WSW,3.5,-,N/A,,Clear,250,2012-11-03 09:56:00
6:56 AM,32.0,28.0,85,30.16,10.0,Calm,Calm,-,N/A,,Clear,0,2012-11-03 10:56:00
7:56 AM,33.1,28.9,85,30.17,10.0,Calm,Calm,-,N/A,,Scattered Clouds,0,2012-11-03 11:56:00
8:56 AM,33.1,30.0,89,30.19,10.0,Calm,Calm,-,N/A,,Mostly Cloudy,0,2012-11-03 12:56:00
9:56 AM,35.1,32.0,89,30.21,10.0,NW,3.5,-,N/A,,Mostly Cloudy,310,2012-11-03 13:56:00
10:56 AM,37.9,33.1,83,30.20,10.0,NE,3.5,-,N/A,,Overcast,50,2012-11-03 14:56:00
11:56 AM,41.0,33.1,73,30.19,10.0,East,4.6,-,N/A,,Mostly Cloudy,80,2012-11-03 15:56:00
12:56 PM,42.1,30.9,65,30.19,10.0,Calm,Calm,-,N/A,,Overcast,0,2012-11-03 16:56:00
1:56 PM,42.1,30.9,65,30.17,10.0,Calm,Calm,-,0.00,Rain,Light Rain,0,2012-11-03 17:56:00
2:56 PM,42.1,32.0,67,30.15,10.0,Calm,Calm,-,0.01,Rain,Light Rain,0,2012-11-03 18:56:00
3:56 PM,42.1,33.1,70,30.14,10.0,Calm,Calm,-,0.01,Rain,Light Rain,0,2012-11-03 19:56:00
4:56 PM,41.0,35.1,79,30.14,8.0,SW,3.5,-,0.00,Rain,Light Rain,230,2012-11-03 20:56:00
5:56 PM,39.9,36.0,86,30.15,10.0,WNW,3.5,-,0.01,Rain,Light Rain,300,2012-11-03 21:56:00
6:56 PM,39.9,36.0,86,30.15,10.0,WNW,4.6,-,0.00,,Overcast,300,2012-11-03 22:56:00
7:56 PM,41.0,36.0,82,30.15,10.0,North,5.8,-,0.00,,Overcast,360,2012-11-03 23:56:00
8:56 PM,39.9,34.0,79,30.17,10.0,North,5.8,-,N/A,,Overcast,10,2012-11-04 00:56:00
9:56 PM,39.9,34.0,79,30.16,10.0,North,6.9,-,N/A,,Overcast,10,2012-11-04 01:56:00
10:56 PM,39.9,34.0,79,30.16,10.0,NE,5.8,-,N/A,,Overcast,50,2012-11-04 02:56:00
11:56 PM,39.9,34.0,79,30.16,10.0,North,5.8,-,N/A,,Overcast,360,2012-11-04 03:56:00